View from above orbital plane
|
View from above satellite
|
Ground track
|
The orbit data is extracted from the following two-line orbital elements,
1 40910U 15049M 21017.10722086 .00001268 00000-0 64633-4 0 9993
2 40910 97.4704 24.0475 0014010 343.7143 88.8747 15.18522944294750
Epoch (UTC): | 17 January 2021 02:34:23 |
Eccentricity: | 0.0014010 |
inclination: | 97.4704° |
perigee height: | 500 km |
apogee height: | 520 km |
right ascension of ascending node: | 24.0475° |
argument of perigee: | 343.7143° |
revolutions per day: | 15.18522944 |
mean anomaly at epoch: | 88.8747° |
orbit number at epoch: | 29475 |
The dashed part of the orbit path shows where the satellite is in the earth's shadow,
|
|